timestamp,gas_concentrations,,corrected_fluxes_and_quality_flags,,,,,,,,,,storage_terms,,,turbulence,,,footprint,,
ISOdate,CO2_1_1_1,H2O_1_1_1,Tau_1_1_1,QcTau_1_1_1,H_1_1_1,QcH_1_1_1,LE_1_1_1, QcLE_1_1_1,Fc_1_1_1, QcFc_1_1_1,E_1_1_1, QcE_1_1_1,Sa_1_1_1,Sw_1_1_1,Sc_1_1_1,ustar_1_1_1,MO_length_1_1_1,ZL_1_1_1,Fetchmax_1_1_1,Fetch70_1_1_1,Fetch90_1_1_1
yyyymmddHHMM,[µmol+1mol_a-1],[mmol+1mol_a-1],[kg+1m-1s-2],[#],[W+1m-2],[#],[W+1m-2],[#],[µmol+1s-1m-2],[#],[mmol+1s-1m-2],[#],[W+1m-2],[W+1m-2],[µmol+1s-1m-2],[m+1s-1],[m],[#],[m],[m],[m]
201407050030,388.14157916958766,12.471678291360359,0.42057865156745461,0,-39.264496407409005,0,-4.9750669229411741,2,10.765119951808737,0,-0.11228445918059819,2,-9999.,-9999.,-9999.,0.60778983466682168,482.56774804466102,4.47605545283994988E-002,99.719941292370351,182.31985672650697,273.14836840404035
201407050100,387.98896020235696,12.639741495885112,0.60045098250727980,0,-47.480161376395337,0,22.740649738646365,0,10.004956186364463,0,0.51315858482738419,0,-3.8565625715898646,5.7222620955393744,-0.11726066310402497,0.72605775267027317,680.27651381504359,3.17517943973481057E-002,108.43524666866777,198.25421455846325,297.02094005647416
201407050130,388.34968236190196,12.627159271662535,0.46466443012176067,0,-48.171933163992904,0,29.072630457950787,0,9.9229469844876359,0,0.65595078757343772,0,-3.3127143618687702,-0.42869282396280317,0.27729915463634952,0.63853560615241345,456.09047369880426,4.73590246795295641E-002,97.625522315840584,178.49059085673855,267.41143034752611
201407050200,388.46456752548727,12.546659161601896,0.36732046421549064,0,-37.701837255966751,0,15.641541123214573,0,7.6579355918323762,0,0.35287882693035488,0,-2.1916221409110146,-2.7437895194800146,8.83414098546132093E-002,0.56763478065712070,409.36620644355401,5.27644921833046940E-002,96.795384155579413,176.97283354079434,265.13755331664765
201407050230,387.28903600236839,12.615115232176548,0.40075596654557855,0,-45.822432866680877,0,18.695311268690944,0,8.9770455855316271,0,0.42178734538668089,0,0.79283080745332468,2.3330427749544072,-0.90386976609399372,0.59293417367842183,383.91174217491351,5.62629313644667159E-002,98.844884036746564,180.71997297802920,270.75145101183125
201407050300,386.22111153004113,12.618062881377043,0.60602266231460455,0,-61.389668748717085,0,21.754419205337776,0,9.9117129488524327,0,0.49082051369731389,0,0.76991376421834434,0.10039263661481475,-0.82061946608530767,0.72936733748773419,533.18501363890357,4.05112661599083754E-002,104.87270363367999,191.74074967568075,287.26258275336426
201407050330,386.17418743159141,12.614658133658800,0.67282309484113523,0,-71.849477678156759,0,21.732529226616268,0,10.860401096166742,0,0.49017470758502502,0,-7.2188689179563088,-0.11608759372018981,-3.60858911724610681E-002,0.76821349441551845,532.17234094763114,4.05883551962456582E-002,108.92717184577003,199.15361067369452,298.36839932852081
201407050400,385.97438369117657,12.583760970131580,0.59724086940478749,0,-71.014487518474581,0,26.688955029951128,0,11.719961611890431,0,0.60177812465835756,0,-7.2913888345535485,-1.0545568960519967,-0.15376583303744429,0.72351298550906573,449.67024567830487,4.80351995881281649E-002,100.92940594996892,184.53114385956525,276.46127947863482
201407050430,385.64747283684102,12.561458640490699,0.61736313590771252,0,-62.242909830247612,0,22.388492863557154,0,11.276055063437028,0,0.50481120790127343,0,-3.74237023980811198E-002,-0.76107849783819659,-0.25154326397255383,0.73565894038796864,539.24519773426880,4.00559895401129337E-002,96.811675911152150,177.00262006597023,265.18217895917672
201407050500,385.63526400487621,12.633251127331908,0.70540355215103112,0,-56.575860893082911,0,24.846697764592967,0,9.7818934666309438,0,0.56027086558778083,0,1.3542110345943810,2.4488272951523125,-9.39036857368158104E-003,0.78653550044635234,724.96336920445572,2.97946088278955822E-002,106.20741523259383,194.18102816292648,290.91856460421963
201407050530,385.83799981081722,12.800952031984103,0.66364239537326786,0,-37.416194919564610,0,40.189293027307613,0,5.7934566752793231,0,0.90615009016779480,0,-2.1255620834419555,5.7225587837770302,0.15598221619075536,0.76280293012620370,999.94722066461304,2.16011400938177535E-002,112.39199696681197,205.48841604425382,307.85909212629474
201407050600,383.93716214389650,13.063071002632956,0.41992929111306909,0,-32.609197258312449,0,39.399763849994017,0,3.8285621635779536,0,0.88834482776824486,0,-9.73299925055352982E-002,8.9471260905134820,-1.4629116304778109,0.60672345841107622,577.48193397346222,3.74037675107471226E-002,96.955685644189685,177.26591578751149,265.57664392880770
201407050630,380.66568066111881,13.375100423262277,0.59524499478775472,0,-42.873296853268172,0,71.104059061949215,0,1.1228111369232907,0,1.6033397814058565,0,2.3201350449860652,10.645388370938351,-2.5167588621569559,0.72254398431583911,741.85892366181952,2.91160479587982690E-002,99.498404119171113,181.91481611824128,272.54154376479596
201407050700,377.53833623269475,13.589614651044151,0.58230461230312680,0,-27.730289226572449,0,62.479511524449265,0,-4.4651242333008065,1,1.4094345457086284,0,9.4389783300844385,7.3045968923582132,-2.4022773859724618,0.71521083202688185,1112.4216616904889,1.94170976203174722E-002,100.66248737003498,184.04313156613119,275.73014813558757
201407050730,374.22769838611293,13.821487010079251,0.87526886063029874,0,19.219828733661636,1,90.559304323233818,0,-6.9507211233197239,1,2.0439276710314767,0,12.035651837047199,7.8738342177803240,-2.5373560156749857,0.87788514196095191,-2967.4527832900717,-7.27897007212079984E-003,102.07453359144615,186.62480240791484,279.59796149860108
201407050800,370.81685509724832,14.160931789055018,0.77205701640619184,0,-2.0093595067278862,2,78.740565597674788,0,-9.8006572764799262,0,1.7781100024904415,0,12.140051635916693,11.498705009100950,-2.6091657000254291,0.82534321519729847,23587.597853237650,9.15735469732674402E-004,101.02257372012863,184.70148425775346,276.71648043520531
201407050830,368.87657840745868,14.487135554440844,1.0789906905489299,0,59.803409873291898,0,141.19722280819431,0,-17.670285138309456,0,3.1908559550945803,0,17.054492033951760,11.008763362194015,-1.4797702008456928,0.97723793926238112,-1315.2974673761964,-1.64221406455594202E-002,109.28750236269788,199.81240978016268,299.35540043892513
201407050900,367.08274698578919,14.882758216652157,0.85842520492249574,0,74.850893040642816,0,113.49073933932333,0,-11.142434412327828,0,2.5661893507030649,0,13.095363897370675,13.309120947778336,-1.3645143613102375,0.87285565590628700,-748.56640351979149,-2.88551555325431003E-002,105.72784863518528,193.30422747294216,289.60495739661843
201407050930,365.79572234318420,15.241166096334421,0.95317665164833754,0,181.38488506328545,0,187.28123551901206,0,-17.062797653986163,0,4.2387840328159960,0,22.083694136764429,12.001093348044517,-0.97538742220138075,0.92153236536892336,-363.47656964281430,-5.94261138241349643E-002,99.814664694632881,182.49304131632255,273.40783047794827
201407051000,365.28441375327594,15.311208485233575,1.3962736765068609,0,213.12709748061556,0,223.26543791669161,0,-16.323188559438236,0,5.0562538716344534,0,13.685995775732565,2.3381699754835874,-0.38654992339602584,1.1167317086902202,-550.37264933622646,-3.92461362788477028E-002,110.21791107745261,201.51349364937425,301.90393405306997
201407051030,364.52183813402576,15.340118361119513,0.91161418913610792,0,271.83577189721353,0,199.25055550958723,0,-16.639563016343921,0,4.5142471173647056,0,9.3588383310251047,0.96308718821653749,-0.57555665903563824,0.90308819681616259,-228.17836159821701,-9.46627885690313614E-002,97.898416273175627,178.98952804581069,268.15892917501583
201407051100,364.03080997231228,15.325804163852670,0.98925949221600407,0,168.37435928582815,0,167.85055621751968,0,-15.466345993207675,0,3.8035094447916764,0,3.9779573817240812,-0.47634107320350605,-0.37027053005843430,0.94118450535580511,-416.91699895766192,-5.18088733584918873E-002,100.91133589933391,184.49810604385738,276.41178281042613
201407051130,363.74781908360768,15.427678005105209,1.1745327782152761,0,278.21825427343151,0,239.45028949976555,0,-15.399302119525798,0,5.4289223299986276,0,12.358309959062236,3.3797896156800258,-0.21286178526495247,1.0268438115266709,-327.53448387279860,-6.59472546053763986E-002,105.64392009731591,193.15077933808271,289.37506412868777
201407051200,363.47709424275587,15.473449135974811,1.0209854455596392,0,261.03724411544971,0,207.61906092240028,0,-13.555053708942943,0,4.7093708661445000,0,10.290474625700753,1.5151619747268372,-0.20327838295601472,0.95822269753967859,-283.65007004856579,-7.61501662816501668E-002,98.196394531188190,179.53432733674870,268.97513778826976
201407051230,362.98059931765266,15.771104721805731,1.2512847090972772,0,274.52834398973715,0,222.88013833386674,0,-12.493254142400367,0,5.0575738160901356,0,9.1128104991448300,9.8318882956621216,-0.37214190282092652,1.0618031213445507,-366.89700613837869,-5.88721075359588952E-002,103.90437200557479,189.97033062597163,284.61017240431005
201407051300,362.97875703244847,16.022342829269387,1.4360018058538191,0,309.56534016623294,0,243.69304128231096,0,-15.079764178186098,0,5.5314788239599153,0,6.6088723460772441,8.2849417114535626,-1.37898307024113612E-003,1.1383086101276552,-400.81397604918800,-5.38903363922350956E-002,112.23222424053613,205.19630054372408,307.42144987608759
201407051330,363.31620982155340,15.976806171850093,1.5241871172457342,0,307.95092286957697,0,270.63549380173163,0,-16.640689180652330,0,6.1438354943665852,0,2.9413924703023961,-1.5002440453026251,0.25238794657249636,1.1731975579687000,-440.99991359486501,-4.89796014333085603E-002,107.98684457376427,197.43439251846644,295.79269724942372
201407051400,362.99778181509640,16.163095223284124,1.5231724571669252,0,286.08870175865883,0,239.44786543319515,0,-13.959730719240472,0,5.4378026199966918,0,8.1659137481643658,6.1272558828924462,-0.23784959366535210,1.1736109471666181,-475.20853989338252,-4.54537285984931219E-002,109.12521132881184,199.51569001014849,298.91086015402260
201407051430,362.45445724757354,16.167363584437286,1.4866456873506591,0,277.86785804524357,0,242.84028708812178,0,-13.380270137875343,0,5.5161080559222251,0,5.1519346658482768,0.14026086105812188,-0.40555215401089156,1.1598600672826911,-472.30612377406857,-4.57330509022418133E-002,108.35705531272470,198.11125582194538,296.80676181867784
201407051500,362.65017148840747,16.108690550792122,1.1233017855342009,0,217.17313621714717,0,214.48256396456077,0,-13.171779491485051,0,4.8726614473584391,0,3.2172333747809505,-1.9266781029152293,0.14600485268741062,1.0084781414304753,-397.20669800339527,-5.43797476441733318E-002,99.846900301080538,182.55197828592821,273.49612879813952
201407051530,362.54288190776651,15.995052430468560,1.1238991771025759,0,164.25542913582393,0,219.59504672569429,0,-14.658110881843797,0,4.9891032175885162,0,1.3280637458150713,-3.7287713587796554,-7.99832799274461520E-002,1.0090766440825036,-525.91460893679130,-4.10713063165660530E-002,110.04039560079002,201.18893874237753,301.41769166074153
201407051600,364.25588249159432,15.706045737778073,1.3641655559558019,0,163.50533392820495,0,262.33684526745634,0,-14.230936190964453,0,5.9610573117593750,0,3.3059091422863802,-9.4724775375851973,1.2757841452793171,1.1121954911762935,-707.14962401581363,-3.05451622491663410E-002,105.38469757921168,192.67683790020638,288.66501349131164
201407051630,367.14585011526788,15.166910087660566,0.95191633052060887,0,105.29346177138416,0,247.55692248278697,1,-12.525810781554998,1,5.6250470104695243,1,-0.66664634093992847,-17.663976682935274,2.1514660190090535,0.92916221092546558,-639.99070350192289,-3.37504902521370831E-002,100.55043896352802,183.83827134303010,275.42323019096193
201407051700,368.48896818790013,15.085263375778231,1.4331083427431479,0,72.249152742461078,0,159.68769218175427,0,-8.0388198689386794,0,3.6275814952077505,0,-5.4380637654100239,-2.6774332053329908,1.0005524785296152,1.1396797633022198,-1720.8763430055994,-1.25517443991789001E-002,112.14612806222688,205.03888927080709,307.18561910516843
201407051730,368.72255103900261,15.461146626185869,1.1972187763526776,0,13.485666589911437,1,77.137716913117757,0,-0.99748412265787290,0,1.7517515526809773,0,-7.2359624312449826,12.341470292559146,0.17416489167246668,1.0412718735329702,-7030.9261759949577,-3.07214148738282683E-003,103.27383582348598,188.81750938591236,282.88303611516699
201407051800,367.84906827459491,16.188124778572593,0.66331800055480428,0,-29.352604815963279,0,52.828488426536794,0,-0.49077792934070663,0,1.1990359671020019,0,-12.520434677178782,23.922923702944281,-0.65239595843501974,0.77451474312035551,1329.2580927571973,1.62496659735931852E-002,107.83860827033679,197.16336927825688,295.38665504868931
201407051830,368.36439677790440,16.613855378946830,1.7980103219565871,1,-226.28168466743287,1,133.92985454733150,1,16.328022645112146,1,3.0384387435615210,1,-9.9145609134348671,14.041732625746373,0.38560537978788950,1.2740869392102470,767.78468463785066,2.81328872953337285E-002,158.52807699072250,289.83988467599079,434.23296298670198
201407051900,362.24895024511500,17.504838953989537,0.21540710038465469,1,-66.702900218753499,1,4.3799330363328837,2,24.516184258053794,1,9.91303543494152228E-002,2,-54.278436315415803,29.737312534706220,-4.6195468990034358,0.43898579847479352,106.63250354755685,0.20256487732529560,92.629302618471158,169.35590778740303,253.72601055246852
201407051930,390.15172882091696,18.918550183210613,7.76641237147718821E-002,0,-24.492018682208261,1,202.89581332936876,0,-19.030715823863549,0,4.5825968296083213,0,-47.734330922690440,47.618441060083811,21.227579843022344,0.26272818125540137,62.257435295076910,0.34694651165156576,91.764181395239191,167.77419027507253,251.35630949232961
201407052000,394.57795149268878,19.376169250494716,0.19659575294877066,0,-26.614080244719652,0,95.001611661119895,0,0.91913506353827801,2,2.1438711345012020,0,-19.725174703390209,15.457791564683040,3.3739939351555619,0.41763063309601178,229.96330602965568,9.39280286621662214E-002,106.68376947417002,195.05195564192090,292.22337267151875
201407052030,381.47180072300984,19.428238168412996,3.02131127185486202E-002,0,-12.468360164553587,1,9.4410483782233001,0,1.3053618312564796,1,0.21310495894532858,0,5.6145385219132971,1.7567064525710929,-9.9808869511508558,0.16380073809155621,29.614787307811017,0.72936535979452788,189.70504127125233,1761.0000000000000,8744.0000000000000
201407052100,375.54198026629791,19.467518028143548,5.17252159197496286E-002,0,-29.034493440771683,0,24.046670750878640,0,3.3412210683582297,0,0.54305586870179379,0,11.471236568874438,1.3225373530650164,-4.5088845670639781,0.21448934655183499,28.559775890550110,0.75630845573781391,107.44597794784569,196.44551582572447,294.31117976676995
201407052130,375.39549372900007,19.380308828450840,8.24647495437774020E-002,0,-28.288325877423723,0,-13.047023969666968,2,9.3900967958715764,0,-0.29483001027562722,2,14.324157380807266,-2.9287869825168356,-0.11116892983850657,0.27108310973966060,59.188363399389310,0.36493659833518671,113.83330589133162,208.12358844018024,311.80706056667367
201407052200,378.30676004687621,19.786011897105940,0.13402386971364133,1,-37.255285924480233,1,63.829530906464498,1,9.0874298325384473,1,1.4421794226092961,1,-3.3125638476098271,13.631291429035887,2.2100814934131541,0.34555931472992046,93.086806346268546,0.23204147663688596,151.21279151295991,276.46520973200126,414.19526273573416
201407052230,383.86696417321320,19.858290461704673,0.27721899151645740,0,-66.132505235052733,0,64.227717742676262,1,20.316874336976628,0,1.4507239937772218,1,-7.1662108632494874,2.4296858107134494,4.2217609431478929,0.49694774210144249,155.86175420043361,0.13858435066901043,107.08782878517772,195.79070493055059,293.33015372363167
201407052300,379.91471784371481,19.866724105686941,0.41616687490104809,0,-64.927133296470473,0,33.719651455929494,0,13.974283958953828,0,0.76157112715495356,0,-1.8488400381586669,0.28352039959710151,-3.0008234646657157,0.60888729798853014,291.95341949006536,7.39844049017381322E-002,106.90569680345084,195.45770957993759,292.83126600871583
201407052330,377.45685917912846,19.729160083363926,0.41822139207132125,0,-63.560556130185461,0,47.316156876876043,0,11.759739077963399,0,1.0687176189595180,0,1.3820715073614602,-4.6215500710258031,-1.8650617216521006,0.61055525065768490,300.59835108586850,7.18566815884820881E-002,94.133828411192098,172.10666078038744,257.84713978878273
201407060000,376.67943802588263,19.489455876503055,0.72133552418228941,0,-92.953764796921874,0,52.247886742144019,0,9.7653478366028406,0,1.1798824381903337,0,-4.4208765409597293,-8.0571320030187934,-0.59010756729528302,0.80168067782404628,465.16080288075301,4.64355549010807347E-002,108.76653831297166,198.85992134430143,297.92839919588727
